Regional Weather Roundup
Issued by NWS

Home | Current Version | Previous Version | Text Only | Print | Product List | Glossary On
Versions: 1 2 3 4 5 6 7 8 9 10 11 12 13 14 15 16 17 18 19 20 21 22 23 24 25 26 27 28 29 30 31 32 33 34 35 36 37 38 39 40 41 42 43 44 45 46 47 48 49 50
000
ASUS42 KTBW 031617
RWRFL
FLORIDA REGIONAL WEATHER ROUNDUP
NATIONAL WEATHER SERVICE TAMPA BAY RUSKIN FL
1200 PM EDT FRI JUL 03 2015

NOTE: "FAIR" INDICATES FEW OR NO CLOUDS BELOW 12,000 FEET WITH NO
SIGNIFICANT WEATHER AND/OR OBSTRUCTIONS TO VISIBILITY.


FLZ001>010-012>015-112-114-115-031700-
PANHANDLE FLORIDA

CITY           SKY/WX    TMP DP  RH WIND       PRES   REMARKS
PENSACOLA      PTSUNNY   86  72  62 SW12      30.08R
PENSACOLA NAS  PTSUNNY   87  74  64 VRB6      30.07R HX  95
MILTON NAS     MOSUNNY   88  74  63 W9        30.08R HX  96
CRESTVIEW      MOSUNNY   88  73  61 SW8       30.09R HX  95
DUKE FIELD     FAIR      89  71  53 SW12      30.06S HX  95
VALPARAISO     PTSUNNY   88  73  60 W8        30.07S HX  95
MARY ESTHER    MOSUNNY   87  74  64 W6        30.07R
TRI COUNTY     FAIR      88  74  63 SW9       30.09R HX  96
PANAMA CITY    PTSUNNY   89  73  59 S12       30.07S HX  97
TYNDALL AFB    MOSUNNY   87  76  70 W9        30.09R HX  96
APALACHICOLA   SUNNY     91  69  48 W9        30.09R HX  96

STATION/POSITION SKY/WX   TEMP    WIND        PRES    WAVE   SWELL
                          AIR SEA DIR/SP/G            HT/PER HT/PER
                          (F)     (DEG/KT/KT) (MB)    (FT/S) (FT/S)
30.1N   87.6W              83 82  260/  6/  8 1017.9R   2/ 4   2/ 4
29.2N   88.2W              84 86  200/  6/  6 1018.6R   2/ 5   2/ 5
28.8N   86.0W              83 84  220/  4/  6 1019.2R   2/ 7   2/ 7
PANAMA CITY BEAC           82 81  240/  8/ 10 1018.5R
CAPE SAN BLAS    NOT AVBL
TOWER C                    83     260/  7/  8 1019.0R
28.5N   84.5W              85 86  210/  4/  6 1019.2R   1/ 5   2/ 5

$$
FLZ011-016>038-118-127-128-134-139-239-031700-
NORTH FLORIDA

CITY           SKY/WX    TMP DP  RH WIND       PRES   REMARKS
MARIANNA       PTSUNNY   87  76  69 W13       30.08R HX  97
TALLAHASSEE    PTSUNNY   89  73  59 W7        30.09R HX  97
PERRY          SUNNY     88  73  62 SW8       30.10S HX  95
CROSS CITY       N/A     90  72  55 W8        30.09S HX  97
LAKE CITY      PTSUNNY   86  73  66 W10       30.10S
GAINESVILLE    MOSUNNY   89  73  59 W9        30.10S HX  97
MAYPORT NAS    SUNNY     89  70  53 W8        30.08S
JACKSONVILLE   MOSUNNY   88  73  61 W7G17     30.08R HX  95
JAX NAS        SUNNY     92  70  48 W6        30.09S HX  97
JAX CRAIG      SUNNY     90  71  53 W10       30.09R HX  96
JAX CECIL      MOSUNNY   90  73  58 SW9       30.10R HX  98
FERNANDINA BEA FAIR      91  72  52 W7        30.08R HX  98
ST AUGUSTINE   MOSUNNY   88  74  63 SW8       30.10S HX  96

STATION/POSITION SKY/WX   TEMP    WIND        PRES    WAVE   SWELL
                          AIR SEA DIR/SP/G            HT/PER HT/PER
                          (F)     (DEG/KT/KT) (MB)    (FT/S) (FT/S)
SHELL POINT                85     260/  6/ 10   N/A
KEATON BEACH               84     270/  7/  8 1019.6R
CEDAR KEY                  86     260/  4/  6 1019.8R
FERNANDINA                 82 78  260/  9/ 10 1017.9S
30.7N   81.3W                 78                N/A     2/ 9
MAYPORT                    84 76  260/ 10/ 12 1018.9S
31.4N   80.9W              79 79  220/ 12/ 14 1018.4R   3/ 8   2/ 8
ST AUGUSTINE               86 73  280/  7/  9 1020.1R

$$
FLZ040-043>046-052-053-057-058-063-144-031700-
INTERIOR CENTRAL FLORIDA

CITY           SKY/WX    TMP DP  RH WIND       PRES   REMARKS
OCALA          MOSUNNY   88  72  58 SE5       30.11S
THE VILLAGES     N/A    N/A N/A N/A VRB3      30.01S
LEESBURG       SUNNY     89  70  53 VRB5      30.12R
SANFORD        MOSUNNY   89  70  53 NW7       30.11R
ORLANDO EXEC   SUNNY     88  74  63 VRB3      30.11R HX  96
ORLANDO INTL   MOSUNNY   89  74  60 S3        30.11R HX  98
KISSIMMEE      MOSUNNY   88  73  62 SE5       30.12R HX  96
WINTER HAVEN   SUNNY     89  72  56 S7        30.12S HX  96
LAKELAND       MOSUNNY   88  73  62 VRB3      30.11S HX  96
BARTOW         MOSUNNY   88  72  58 CALM      30.12S
OKEECHOBEE     MOSUNNY   88  72  58 S6        30.12S

$$
FLZ041-047-054-059-064-141-147-031700-
EAST CENTRAL FLORIDA

CITY           SKY/WX    TMP DP  RH WIND       PRES   REMARKS
ORMOND BEACH   SUNNY     86  72  62 SW7       30.11S
DAYTONA BEACH  MOSUNNY   88  71  57 S7        30.11R
DELAND           N/A     86  72  62 W7        30.12S
JFK SPACE CTR  MOSUNNY   88  70  55 SW6       30.10S
TITUSVILLE     MOSUNNY   90  68  48 S7        30.12R
CAPE CANAVERAL SUNNY     88  74  64 VRB5      30.10S HX  96
PATRICK AFB    SUNNY     85  76  74 SE9       30.11S
MELBOURNE      SUNNY     88  70  55 S5        30.11S
VERO BEACH     MOSUNNY   90  74  59 SE8       30.12R HX  99
FT PIERCE      SUNNY     90  74  59 E12       30.11R HX  99

STATION/POSITION SKY/WX   TEMP    WIND        PRES    WAVE   SWELL
                          AIR SEA DIR/SP/G            HT/PER HT/PER
                          (F)     (DEG/KT/KT) (MB)    (FT/S) (FT/S)
28.5N   80.2W              80 81  220/  4/  6 1020.2R
28.9N   78.5W              83 84  190/  6/  8 1020.4R
TRIDENT PIER               84 78  150/  5/  8 1020.2R
28.4N   80.5W                 79                N/A     2/10
27.5N   80.2W                 82                N/A     1/10

$$
FLZ050-056-061-142-242-148-248-149-249-151-251-155-255-
160-260-031700-
WEST CENTRAL FLORIDA

CITY           SKY/WX    TMP DP  RH WIND       PRES   REMARKS
CRYSTAL RIVER  FAIR      90  72  55 W3        30.10S HX  96
INVERNESS      FAIR     N/A N/A N/A W3        30.11S
BROOKSVILLE    SUNNY     90  68  48 CALM      30.11S
ZEPHYRHILLS    FAIR      88  68  51 CALM      30.11S
CLEARWATER     SUNNY     88  75  65 NE7       30.10R HX  97
TAMPA INTL     MOSUNNY   88  73  61 SW8       30.10S HX  95
TAMPA EXEC     SUNNY    N/A N/A N/A CALM      30.11S
PLANT CITY     MOSUNNY   90  75  62 S5        30.12S HX 100
MACDILL AFB    SUNNY     90  76  61 SE5       30.10S HX 101
PETER O KNIGHT SUNNY     90  73  58 SW3       30.11R HX  98
ST PETERSBURG  SUNNY     87  74  64 S8        30.08F HX  95
SARASOTA       SUNNY     88  69  53 W7        30.08S
VENICE         FAIR      88  73  62 SW9       30.10S HX  96

STATION/POSITION SKY/WX   TEMP    WIND        PRES    WAVE   SWELL
                          AIR SEA DIR/SP/G            HT/PER HT/PER
                          (F)     (DEG/KT/KT) (MB)    (FT/S) (FT/S)
CEDAR KEY                  86     260/  4/  6 1019.8R
28.5N   84.5W              85 86  210/  4/  6 1019.2R   1/ 5   2/ 5
27.3N   84.2W                 87                N/A     2/ 4
CLEARWATER BEACH           85 87  250/  3/  4 1019.3F
MIDDLE TAMPA BAY           86     250/  1/  4 1019.7S
VENICE                     85 89  190/  7/  8 1018.9F

$$
FLZ066-069-070-075>078-162-262-165-265-031700-
SOUTHWEST FLORIDA AND KEYS

CITY           SKY/WX    TMP DP  RH WIND       PRES   REMARKS
PUNTA GORDA    MOSUNNY   89  72  56 S8        30.11F HX  96
FT MYERS       SUNNY     89  73  59 MISG      30.09S HX  97
SOUTHWEST INTL MOSUNNY   88  72  58 VRB3      30.10S
NAPLES         MOSUNNY   89  72  56 VRB5      30.09S HX  96
MARCO ISLAND   MOSUNNY   90  72  55 E8        30.10R HX  96
MARATHON       MOSUNNY   92  78  63 SE8       30.09R HX 107
KEY WEST NAS   MOSUNNY   88  76  67 SE10      30.08R HX  99
KEY WEST INTL  SUNNY     89  77  67 E10       30.09R HX 101

STATION/POSITION SKY/WX   TEMP    WIND        PRES    WAVE   SWELL
                          AIR SEA DIR/SP/G            HT/PER HT/PER
                          (F)     (DEG/KT/KT) (MB)    (FT/S) (FT/S)
VENICE                     85 89  190/  7/  8 1018.9F
NAPLES                        88              1019.8S
26.0N   85.6W              85 86  100/ 10/ 12 1018.4F   2/ 5   2/ 5
DRY TORTUGAS               85     120/ 11/ 12 1018.3R
NW FL BAY                  85     100/  8/  9 1018.8
SAND KEY                   84     110/ 10/ 11 1018.6R
SOMBRERO KEY               85     100/ 12/ 12 1019.5R
LONG KEY                   83 87  120/  9/ 10 1019.8R
MOLASSES REEF              84 86  100/ 10/ 11 1019.1R

$$
FLZ067-068-071>074-168-172>174-031700-
SOUTHEAST FLORIDA

CITY           SKY/WX    TMP DP  RH WIND       PRES   REMARKS
W PALM BEACH   MOSUNNY   88  73  61 E12       30.12R HX  95
FT LAUDER-EXEC MOSUNNY   89  72  56 E7        30.10R HX  96
FT LAUDERDALE  PTSUNNY   88  75  65 SE12      30.10R HX  97
POMPANO BEACH  MOSUNNY   88  75  65 E9        30.11R HX  97
PEMBROKE PINES MOSUNNY   92  72  51 SE13      30.11R HX  99
OPA LOCKA      MOSUNNY   90  74  59 SE10      30.10R HX  99
MIAMI          PTSUNNY   88  73  61 SE10      30.10R HX  95
WEST KENDALL   PTSUNNY  N/A N/A N/A SE9       30.10R
HOMESTEAD      MOSUNNY   89  75  62 E12       30.10R HX  99

STATION/POSITION SKY/WX   TEMP    WIND        PRES    WAVE   SWELL
                          AIR SEA DIR/SP/G            HT/PER HT/PER
                          (F)     (DEG/KT/KT) (MB)    (FT/S) (FT/S)
PORT EVERGLADES            86     120/  5/  8 1019.1F
VIRGINIA KEY               85 87  120/  7/  9 1018.9F
LAKE WORTH                 83 85  110/  8/  9 1019.2R
SETTLEMENT POINT           85     180/  9/ 12 1020.7R

$$



USA.gov is the U.S. government's official web portal to all federal, state and local government web resources and services.